KC7NGC-B Weather Reports


time (UTC)temp
C
wind
direction
speed
KPH
gust
KPH
rain 1hr
cm
rain 24hr
cm
rain mn
cm
humidity
%
barometer
mb
20260507153627 17 249 4.8 8.0 0.00 0.00 0.00 43 1017.6
20260507152650 16 314 6.4 9.7 0.00 0.00 0.00 44 1017.6
20260507151626 16 325 9.7 12.9 0.00 0.00 0.00 46 1017.6
20260507150619 16 327 4.8 6.4 0.00 0.00 0.00 50 1017.3
20260507145617 16 222 4.8 6.4 0.00 0.00 0.00 51 1017.3
20260507144638 16 266 4.8 9.7 0.00 0.00 0.00 54 1017.4
20260507143638 15 266 4.8 8.0 0.00 0.00 0.00 56 1017.3
20260507142629 15 234 4.8 6.4 0.00 0.00 0.00 57 1017.3
20260507141633 15 0.0 0.0 0.00 0.00 0.00 60 1017.3
20260507140625 14 49 4.8 6.4 0.00 0.00 0.00 66 1017.2
20260507135629 13 347 1.6 3.2 0.00 0.00 0.00 66 1017.1
20260507134623 14 333 6.4 6.4 0.00 0.00 0.00 62 1017.0
20260507133620 13 295 1.6 3.2 0.00 0.00 0.00 70 1016.8
20260507132620 12 234 3.2 8.0 0.00 0.00 0.00 71 1016.5
20260507131635 12 230 4.8 4.8 0.00 0.00 0.00 73 1016.7
20260507130655 12 202 4.8 6.4 0.00 0.00 0.00 73 1016.6
20260507125630 12 181 4.8 6.4 0.00 0.00 0.00 73 1016.6
20260507124631 12 200 8.0 11.3 0.00 0.00 0.00 76 1016.4
20260507123629 11 303 4.8 6.4 0.00 0.00 0.00 75 1016.6
20260507122623 11 322 3.2 4.8 0.00 0.00 0.00 73 1016.5
20260507121623 12 220 4.8 6.4 0.00 0.00 0.00 71 1016.3
20260507120621 12 350 3.2 4.8 0.00 0.00 0.00 71 1016.4
20260507115637 12 230 1.6 6.4 0.00 0.00 0.00 70 1016.3
20260507114640 12 209 6.4 11.3 0.00 0.00 0.00 68 1016.0
20260507113637 12 9 1.6 3.2 0.00 0.00 0.00 70 1016.2
20260507112631 12 187 4.8 11.3 0.00 0.00 0.00 67 1016.2
20260507111629 12 229 4.8 6.4 0.00 0.00 0.00 66 1016.5
20260507110629 12 0.0 1.6 0.00 0.00 0.00 68 1016.3
20260507105626 13 16 1.6 3.2 0.00 0.00 0.00 66 1016.4
20260507104641 13 182 3.2 4.8 0.00 0.00 0.00 65 1016.2
20260507103622 13 229 8.0 12.9 0.00 0.00 0.00 66 1016.2
20260507102638 13 200 8.0 14.5 0.00 0.00 0.00 65 1016.2
20260507101633 13 213 3.2 6.4 0.00 0.00 0.00 63 1016.2
20260507100632 13 56 4.8 4.8 0.00 0.00 0.00 64 1016.1
20260507095637 15 227 8.0 9.7 0.00 0.00 0.00 60 1016.0
20260507094636 14 235 6.4 9.7 0.00 0.00 0.00 59 1015.8
20260507093624 15 216 1.6 3.2 0.00 0.00 0.00 58 1016.0
20260507092624 15 207 4.8 6.4 0.00 0.00 0.00 56 1015.9
20260507091622 15 211 8.0 11.3 0.00 0.00 0.00 57 1016.1
20260507090618 15 212 8.0 9.7 0.00 0.00 0.00 56 1016.1
20260507085634 15 246 8.0 9.7 0.00 0.00 0.00 59 1016.0
20260507084637 15 229 9.7 14.5 0.00 0.00 0.00 58 1016.2
20260507083631 15 211 9.7 12.9 0.00 0.00 0.00 60 1016.1
20260507082631 15 210 12.9 19.3 0.00 0.00 0.00 62 1016.0
20260507081629 15 234 9.7 17.7 0.00 0.00 0.00 63 1016.0
20260507080624 15 222 6.4 8.0 0.00 0.00 0.00 62 1016.0
20260507075643 15 223 11.3 20.9 0.00 0.00 0.00 62 1015.9
20260507074623 15 214 12.9 22.5 0.00 0.00 0.00 62 1015.8
20260507073620 16 212 14.5 19.3 0.00 0.00 0.00 61 1015.7
20260507072638 16 226 12.9 24.1 0.00 0.00 0.00 60 1015.8
20260507071632 16 218 12.9 19.3 0.00 0.00 0.00 59 1015.4
20260507070633 16 209 16.1 20.9 0.00 0.00 0.00 57 1015.3
20260507065708 16 211 12.9 20.9 0.00 0.00 0.00 58 1015.3
20260507064627 17 222 14.5 20.9 0.00 0.00 0.00 55 1015.3
20260507063625 17 218 14.5 20.9 0.00 0.00 0.00 54 1015.2
20260507062625 17 222 12.9 16.1 0.00 0.00 0.00 56 1015.4
20260507061621 17 214 14.5 25.7 0.00 0.00 0.00 53 1015.2
20260507060637 17 215 16.1 20.9 0.00 0.00 0.00 52 1015.3
20260507055637 18 222 14.5 20.9 0.00 0.00 0.00 51 1015.1
20260507054631 18 213 9.7 11.3 0.00 0.00 0.00 50 1015.1
20260507053653 18 207 6.4 8.0 0.00 0.00 0.00 48 1015.3
20260507052630 18 211 9.7 14.5 0.00 0.00 0.00 50 1015.2
20260507051628 18 218 8.0 11.3 0.00 0.00 0.00 50 1015.2
20260507050628 18 203 11.3 17.7 0.00 0.00 0.00 50 1015.1
20260507045620 19 227 8.0 11.3 0.00 0.00 0.00 50 1015.1
20260507044622 19 212 9.7 11.3 0.00 0.00 0.00 46 1015.1
20260507043640 20 215 11.3 19.3 0.00 0.00 0.00 42 1014.9
20260507042634 21 223 6.4 9.7 0.00 0.00 0.00 32 1015.0
20260507041635 21 232 8.0 11.3 0.00 0.00 0.00 32 1014.9
20260507040645 21 227 4.8 8.0 0.00 0.00 0.00 32 1014.8
20260507035646 21 215 9.7 14.5 0.00 0.00 0.00 32 1014.7
20260507034629 21 221 6.4 9.7 0.00 0.00 0.00 32 1014.4
20260507033625 22 232 4.8 6.4 0.00 0.00 0.00 31 1014.5
20260507032621 22 252 4.8 8.0 0.00 0.00 0.00 30 1014.6
20260507031618 22 299 8.0 12.9 0.00 0.00 0.00 30 1014.1
20260507030642 23 230 4.8 11.3 0.00 0.00 0.00 32 1014.1
20260507025634 23 228 6.4 12.9 0.00 0.00 0.00 31 1014.1
20260507024633 24 288 4.8 9.7 0.00 0.00 0.00 30 1014.0
20260507023630 24 298 8.0 11.3 0.00 0.00 0.00 29 1013.9
20260507022633 25 298 20.9 27.4 0.00 0.00 0.00 28 1013.6
20260507021630 25 310 9.7 12.9 0.00 0.00 0.00 30 1013.7
20260507020624 24 313 6.4 9.7 0.00 0.00 0.00 33 1013.7
20260507015622 25 337 6.4 11.3 0.00 0.00 0.00 32 1013.6
20260507014617 25 315 11.3 14.5 0.00 0.00 0.00 34 1013.3
20260507013641 26 296 16.1 24.1 0.00 0.00 0.00 30 1013.0
20260507012634 25 264 9.7 22.5 0.00 0.00 0.00 34 1013.2
20260507011653 25 217 8.0 14.5 0.00 0.00 0.00 40 1013.1
20260507010628 25 203 11.3 14.5 0.00 0.00 0.00 41 1013.0
20260507005632 25 206 12.9 20.9 0.00 0.00 0.00 41 1013.0
20260507004628 25 201 14.5 25.7 0.00 0.00 0.00 42 1012.8
20260507003650 25 206 12.9 20.9 0.00 0.00 0.00 42 1012.7
20260507002621 25 204 14.5 19.3 0.00 0.00 0.00 42 1012.8
20260507001622 25 202 11.3 25.7 0.00 0.00 0.00 42 1012.8
20260507000638 25 196 11.3 17.7 0.00 0.00 0.00 42 1012.6
20260506235635 26 192 9.7 14.5 0.00 0.00 0.00 41 1012.8
20260506234632 26 201 14.5 22.5 0.00 0.00 0.00 41 1012.7
20260506233630 26 210 9.7 17.7 0.00 0.00 0.00 41 1012.8
20260506232632 26 203 14.5 17.7 0.00 0.00 0.00 41 1012.9
20260506231625 26 205 11.3 17.7 0.00 0.00 0.00 42 1013.0
20260506230641 26 212 16.1 24.1 0.00 0.00 0.00 39 1013.0
20260506225623 26 223 14.5 22.5 0.00 0.00 0.00 40 1013.0
20260506224644 26 206 16.1 20.9 0.00 0.00 0.00 40 1013.1
20260506223635 26 206 16.1 24.1 0.00 0.00 0.00 38 1013.2
20260506222633 26 205 16.1 24.1 0.00 0.00 0.00 37 1013.5
20260506221631 26 196 16.1 24.1 0.00 0.00 0.00 34 1013.6
20260506220632 26 220 16.1 24.1 0.00 0.00 0.00 35 1013.8
20260506215624 26 203 16.1 19.3 0.00 0.00 0.00 32 1013.9
20260506214627 26 218 11.3 16.1 0.00 0.00 0.00 33 1013.9
20260506213625 26 200 12.9 19.3 0.00 0.00 0.00 34 1013.9
20260506212624 26 203 17.7 27.4 0.00 0.00 0.00 33 1014.2
20260506211646 26 195 12.9 19.3 0.00 0.00 0.00 34 1014.1
20260506210655 26 202 19.3 25.7 0.00 0.00 0.00 34 1014.3
20260506205634 26 185 11.3 24.1 0.00 0.00 0.00 35 1014.4
20260506204631 26 204 12.9 22.5 0.00 0.00 0.00 36 1014.4
20260506203632 26 209 14.5 25.7 0.00 0.00 0.00 37 1014.5
20260506202629 26 213 12.9 17.7 0.00 0.00 0.00 37 1014.4
20260506201628 25 213 16.1 32.2 0.00 0.00 0.00 38 1014.6
20260506200626 25 211 22.5 30.6 0.00 0.00 0.00 38 1014.7
20260506195618 25 219 17.7 27.4 0.00 0.00 0.00 39 1014.9
20260506194658 24 213 19.3 27.4 0.00 0.00 0.00 38 1014.9
20260506193638 24 217 22.5 30.6 0.00 0.00 0.00 38 1014.8
20260506192633 24 205 19.3 29.0 0.00 0.00 0.00 40 1014.9
20260506191632 25 200 14.5 27.4 0.00 0.00 0.00 41 1014.8
20260506190631 23 200 16.1 22.5 0.00 0.00 0.00 40 1015.0
20260506185626 23 195 20.9 33.8 0.00 0.00 0.00 42 1014.8
20260506184708 23 195 14.5 22.5 0.00 0.00 0.00 45 1015.0
20260506183626 22 196 17.7 29.0 0.00 0.00 0.00 46 1014.9
20260506182623 22 213 20.9 32.2 0.00 0.00 0.00 46 1015.1
20260506181656 22 199 9.7 14.5 0.00 0.00 0.00 48 1015.3
20260506180634 22 213 12.9 24.1 0.00 0.00 0.00 49 1015.3
20260506175634 21 196 17.7 25.7 0.00 0.00 0.00 49 1015.2
20260506174634 21 214 20.9 32.2 0.00 0.00 0.00 48 1015.3
20260506173627 21 190 11.3 20.9 0.00 0.00 0.00 49 1015.2
20260506172626 21 193 17.7 20.9 0.00 0.00 0.00 49 1015.4
20260506171627 21 225 14.5 22.5 0.00 0.00 0.00 51 1015.7
20260506170626 20 195 11.3 17.7 0.00 0.00 0.00 53 1015.7
20260506165620 20 192 16.1 29.0 0.00 0.00 0.00 54 1015.8
20260506164658 20 201 12.9 20.9 0.00 0.00 0.00 55 1015.7
20260506163637 19 215 12.9 19.3 0.00 0.00 0.00 57 1015.9
20260506162636 19 217 20.9 29.0 0.00 0.00 0.00 56 1015.8
20260506161630 18 206 14.5 22.5 0.00 0.00 0.00 58 1015.8
20260506160631 18 206 25.7 30.6 0.00 0.00 0.00 60 1015.8
20260506155630 17 192 16.1 27.4 0.00 0.00 0.00 62 1015.6
20260506154627 17 194 14.5 20.9 0.00 0.00 0.00 62 1015.8